EHI
0 0 0 0 0 0 0 0 0 0 0 0 0 0 0 0 0 0 0 0 0 0 0 0 0 0 0 0 0 0 0 0 0 0 0 0 0 0 0 0 0 0 0
0 0 0 0 0 0 0 0 0 0 0 0 0 0 0 0 0 0 0 0 0 0 0 0 0 0 0 0 0 0 0 0 0 0 0 0 0 0 0 0 0 0 0
0 0 0 0 0 0 0 0 0 0 0 0 0 0 0 0 0 0 0 0 0 0 0 0 0 1 0 0 0 0 0 0 0 0 0 0 0 0 0 0 0 0 0
0 0 0 0 0 0 0 0 0 0 0 0 0 0 0 0 0 0 0 0 0 0 0 0 0 0 0 0 0 0 0 0 0 0 0 0 0 0 0 0 0 0 1
0 0 0 0 0 0 0 0 0 0 0 0 0 0 0 0 0 0 0 0 0 0 0 0 0 0 0 0 0 0 0 0 0 0 0 0 0 0 0 0 0 0 1
0 0 0 0 0 0 0 0 0 0 0 0 0 0 0 0 0 0 0 0 0 0 0 0 0 0 0 0 0 0 0 0 0 0 0 0 0 0 0 0 0 0 1
0 0 0 0 0 0 0 0 0 0 0 0 0 0 0 0 0 0 0 0 0 0 0 0 0 0 0 0 0 0 0 0 0 0 0 0 0 0 0 0 0 0 0
0 0 0 0 0 0 0 0 0 0 0 0 0 0 0 0 0 0 0 0 0 0 0 0 0 0 0 0 0 0 0 0 0 0 0 0 0 0 0 0 0 0 0
0 0 0 0 0 0 0 0 0 0 0 0 0 0 0 0 0 0 0 0 0 0 0 0 0 0 0 0 0 0 0 0 0 0 0 0 0 0 0 0 0 0 0
0 0 0 0 0 0 0 0 0 0 0 0 0 0 0 0 0 0 0 0 0 0 0 0 0 0 0 0 0 0 0 0 0 0 0 0 0 0 0 0 0 0 0
0 0 0 0 0 0 0 0 0 0 0 0 0 0 0 0 0 0 0 0 0 0 0 0 0 0 0 0 0 0 0 0 0 0 0 0 0 0 0 0 0 0 0
0 0 0 0 0 0 0 0 0 0 0 0 0 0 0 0 0 0 0 0 0 0 0 0 0 0 0 0 0 0 0 0 0 0 0 0 0 0 0 0 0 0 0
0 0 0 0 0 0 0 0 0 0 0 0 0 0 0 0 0 0 0 0 0 0 0 0 0 0 0 0 0 0 0 0 0 0 0 0 0 0 0 0 0 0 0
0 0 0 0 0 0 0 0 0 0 0 0 0 0 0 0 0 0 0 0 0 0 0 0 0 0 0 0 0 0 0 0 0 0 0 0 0 0 0 0 0 0 0
0 0 0 0 0 0 0 0 0 0 0 0 0 0 0 0 0 0 0 0 0 0 0 0 0 0 0 0 0 0 0 0 0 0 0 0 0 0 0 0 0 0 0
0 0 0 0 0 0 0 0 0 0 0 0 0 0 0 0 0 0 0 0 0 0 0 0 0 0 0 0 0 0 0 0 0 0 0 0 0 0 0 0 0 0 0
0 0 0 0 0 0 0 0 0 0 0 0 0 0 0 0 0 0 0 0 0 0 0 0 0 0 0 0 0 0 0 0 0 0 0 0 0 0 0 0 0 0 0
0 0 0 0 0 0 0 0 0 0 0 0 0 0 0 0 0 0 0 0 0 0 0 0 0 0 0 0 0 0 0 0 0 0 0 0 0 0 0 0 0 0 0
0 0 0 0 0 0 0 0 0 0 0 0 0 0 0 0 0 0 0 0 0 0 0 0 0 0 0 0 0 0 0 0 0 0 0 0 0 0 0 0 0 0 0
0 0 0 0 0 0 0 0 0 0 0 0 0 0 0 0 0 0 0 0 0 0 0 0 0 0 0 0 0 0 0 0 0 0 0 0 0 0 0 0 0 0 0
0 0 0 0 0 0 0 0 0 0 0 0 0 0 0 0 0 0 0 0 0 0 0 0 0 0 0 0 0 0 0 0 0 0 0 0 0 0 0 0 0 0 0
0 0 0 0 0 0 0 0 0 0 0 0 0 0 0 0 0 0 0 0 0 0 0 0 0 0 0 0 0 0 0 0 0 0 0 0 0 0 0 0 0 0 0
0 0 0 0 0 0 0 0 0 0 0 0 0 0 0 0 0 0 0 0 0 0 0 0 0 0 0 0 0 0 0 0 0 0 0 0 0 0 0 0 0 0 0
0 0 0 0 0 0 0 0 0 0 0 0 0 0 0 0 0 0 0 0 0 0 0 0 0 0 0 0 0 0 0 0 0 0 0 0 0 0 0 0 0 0 0
0 0 0 0 0 0 0 0 0 0 0 0 0 0 0 0 0 0 0 0 0 0 0 0 0 0 0 0 0 0 0 0 0 0 0 0 0 0 0 0 0 0 0
0 0 0 0 0 0 0 0 0 0 0 0 0 0 0 0 0 0 0 0 0 0 0 0 0 0 0 0 0 0 0 0 0 0 0 0 0 0 0 0 0 0 0
Wind_Speed
2 2 2 2 2 2 2 2 2 3 3 3 3 3 4 4 4 3 3 9 11 10 9 9 9 8 7 7 6 6 6 7 7 7 7 6 6 5 4 4 3 3 4
2 2 2 2 2 2 2 2 2 2 2 3 3 4 4 3 3 3 3 4 9 10 10 9 9 9 8 7 7 7 6 6 6 6 6 6 6 5 5 5 4 3 3
2 2 2 2 2 2 2 2 2 2 2 3 3 3 3 3 3 3 3 3 4 8 11 10 9 9 9 8 7 7 7 6 5 5 5 6 6 6 6 5 4 4 3
2 2 2 2 2 1 1 2 1 2 2 2 2 2 2 2 3 3 3 4 4 4 6 11 11 10 10 9 8 7 7 6 6 5 6 5 5 5 6 6 5 4 3
2 2 2 2 2 1 2 1 1 1 1 2 2 2 2 3 3 3 3 4 5 5 4 7 10 11 11 11 10 10 8 8 8 6 6 6 6 6 6 5 6 5 4
2 2 2 2 2 1 2 1 2 2 1 1 2 2 2 3 3 3 3 3 4 5 5 5 4 6 10 11 11 11 10 9 8 8 7 7 6 6 6 6 5 5 5
2 2 2 2 2 1 1 2 2 2 2 1 1 1 2 3 3 3 3 3 4 4 4 5 4 4 4 8 10 11 10 10 9 8 8 7 7 6 6 6 5 5 5
2 2 2 2 2 2 2 2 2 1 1 0 1 1 1 2 1 2 2 3 3 3 4 4 4 4 4 3 8 12 12 11 9 8 7 8 8 7 6 6 6 6 5
2 2 2 2 2 2 2 2 2 2 2 1 1 1 2 2 1 1 1 2 3 3 3 3 4 4 4 4 4 8 11 11 10 8 7 6 7 7 7 7 7 6 6
2 2 2 3 2 2 2 2 2 2 2 2 1 1 2 1 1 1 1 1 2 2 3 2 3 3 3 3 5 9 10 10 10 9 9 8 6 7 7 7 7 7 6
2 2 2 2 2 2 2 2 2 2 2 2 2 1 1 1 2 2 2 1 0 1 2 2 2 2 3 3 3 7 9 9 9 9 9 8 8 8 7 7 7 7 7
2 2 2 2 2 2 3 3 2 3 2 2 2 2 1 1 1 2 2 2 2 0 1 1 1 1 2 2 4 7 8 8 8 9 8 9 9 9 8 8 7 7 7
2 3 3 3 2 2 2 3 3 3 3 3 3 2 2 2 1 1 1 1 2 1 1 1 1 1 1 2 2 6 5 7 8 8 8 8 8 8 8 9 8 7 7
3 4 4 3 3 3 2 2 2 3 2 3 3 2 2 1 2 2 2 1 2 2 2 2 1 1 1 2 3 5 3 6 7 7 7 7 8 8 8 8 8 8 7
2 3 3 3 3 3 3 3 2 3 2 2 2 2 2 2 2 2 2 3 3 3 3 2 2 1 2 2 3 3 3 5 6 6 7 7 7 7 7 7 8 8 7
3 3 3 3 3 3 3 3 3 3 3 3 2 3 3 2 2 2 2 3 3 4 3 2 2 2 3 2 3 4 4 5 5 5 6 6 6 7 7 7 7 7 7
4 4 3 3 3 3 3 4 4 4 4 4 4 4 4 4 3 3 3 3 3 4 4 3 3 3 4 4 3 4 4 4 3 5 6 6 6 7 7 6 6 6 7
4 4 4 4 4 4 4 4 5 5 5 5 5 5 5 4 5 4 4 4 4 4 4 5 3 4 5 5 4 4 4 4 4 5 6 7 6 6 6 6 6 6 6
4 4 4 4 4 4 4 5 5 5 6 6 6 6 6 6 6 5 5 5 4 4 4 4 4 4 4 4 5 4 5 4 4 4 6 6 6 6 6 6 6 6 6
4 4 4 4 4 5 5 5 5 5 5 6 6 6 6 7 7 6 6 6 5 5 5 5 4 4 4 4 4 4 4 4 3 3 4 5 5 6 7 7 7 7 7
4 4 4 4 4 4 5 5 5 6 6 6 6 7 7 7 8 7 6 6 6 5 5 5 5 4 4 4 4 4 4 4 4 4 4 3 4 4 4 6 6 6 7
4 4 5 5 5 4 6 8 6 6 6 6 7 7 7 8 9 11 11 10 9 8 7 6 6 6 6 6 5 4 4 4 5 3 4 4 4 5 4 4 6 7 7
5 5 5 5 6 6 8 8 9 6 6 6 6 6 5 6 8 7 9 10 11 12 12 9 9 9 8 6 6 6 6 6 5 3 4 5 4 5 4 5 8 8 8
5 5 5 5 6 6 9 9 9 7 6 7 7 7 7 7 7 7 7 8 8 8 9 8 9 8 8 7 7 6 6 6 5 4 5 6 5 5 4 5 7 8 8
5 5 5 6 6 7 9 9 9 6 6 7 7 7 7 7 9 10 8 8 8 7 8 10 10 10 10 10 8 5 5 5 5 5 4 5 4 5 5 5 5 7 8
5 5 5 6 6 7 8 9 9 5 6 6 6 7 9 10 10 11 8 8 8 7 6 6 7 8 8 8 9 8 6 6 5 4 4 4 4 3 4 3 3 4 5
Wind_Direction
109 97 86 80 71 59 61 62 72 74 67 61 55 55 59 56 55 53 50 36 31 32 33 37 40 41 45 46 49 55 58 54 52 51 48 43 40 39 43 41 41 46 54
110 106 95 80 72 60 51 50 64 73 68 61 56 48 47 49 51 50 48 44 34 28 28 32 37 38 39 42 42 44 49 50 49 48 47 44 39 39 40 36 33 37 47
111 108 104 91 70 65 70 72 70 68 68 65 58 46 42 42 46 43 40 35 35 32 27 28 33 36 35 35 37 38 39 42 44 42 43 42 37 36 33 25 20 23 31
104 111 105 93 80 80 82 90 83 83 75 65 56 43 39 40 41 38 39 36 31 26 31 29 29 34 35 35 34 31 30 36 40 40 39 36 31 28 26 25 25 27 30
104 112 103 94 101 101 96 102 101 93 90 71 58 47 40 41 33 32 41 41 35 26 27 32 34 35 36 35 33 31 29 32 34 38 38 34 30 29 21 20 23 21 19
116 114 104 97 103 106 101 111 115 98 91 88 79 63 48 47 42 33 31 40 37 32 28 29 31 34 36 34 32 30 28 29 28 30 32 29 25 24 18 12 11 13 18
122 120 117 116 110 118 118 122 125 123 100 109 129 108 80 66 52 34 27 35 40 33 31 28 27 23 28 33 30 26 23 22 23 27 26 24 20 18 16 8 3 3 11
122 128 124 130 131 139 139 137 140 161 131 221 256 206 191 176 78 38 30 32 34 30 34 31 31 29 26 23 28 26 20 17 16 20 20 17 17 17 12 6 6 5 3
126 128 141 143 141 143 155 163 179 192 179 172 302 275 231 217 150 129 40 30 29 23 27 27 30 28 27 28 20 22 18 14 12 11 13 11 7 5 7 7 6 5 7
141 135 150 151 151 157 167 183 196 216 199 189 195 311 321 339 237 194 170 76 28 19 15 13 18 27 26 27 21 19 15 11 9 7 7 4 359 356 359 358 0 4 2
151 150 157 161 166 176 178 184 195 196 215 215 205 203 210 244 264 245 227 200 228 9 2 356 357 11 19 19 12 15 11 7 6 0 358 358 356 352 349 350 353 357 0
176 172 177 176 183 189 193 194 200 194 207 218 217 219 223 220 224 243 249 248 245 255 326 331 338 356 6 360 10 9 5 0 359 355 353 355 353 353 349 343 343 345 350
192 194 193 193 196 203 204 201 202 204 208 216 224 227 238 254 264 260 255 267 269 268 242 238 303 321 339 339 354 354 357 356 353 346 343 346 350 349 347 344 342 339 339
200 198 201 198 196 198 203 207 211 211 212 220 231 238 243 256 257 262 256 245 254 250 237 240 246 276 309 319 344 330 334 346 343 340 337 341 347 346 343 343 343 341 335
204 200 199 197 194 196 199 200 212 213 213 222 229 230 237 246 253 264 262 257 252 250 248 236 242 248 290 295 318 303 307 332 329 332 335 337 342 342 338 337 336 334 332
196 196 201 198 196 199 202 204 211 211 211 218 224 228 234 238 243 247 250 256 261 260 256 254 266 275 275 277 291 287 295 306 305 315 320 325 328 328 326 324 324 324 327
194 195 200 201 200 205 208 211 217 214 216 218 221 226 233 236 236 234 240 244 248 251 252 264 265 270 265 268 271 275 280 281 284 302 304 308 314 315 316 320 322 322 324
200 200 202 207 209 212 215 219 223 222 222 222 223 226 231 231 235 236 236 239 243 249 254 260 263 263 265 267 270 271 273 276 280 293 293 295 298 302 306 312 317 316 318
205 205 208 211 215 219 222 226 230 231 231 231 228 227 230 230 232 235 236 240 243 247 254 257 261 263 265 259 262 264 268 270 274 278 281 282 284 291 297 299 304 308 310
210 212 217 222 224 227 228 230 232 234 235 236 236 234 232 231 234 236 237 238 242 243 244 248 254 255 256 257 256 258 263 264 269 274 275 277 279 280 282 288 293 297 300
218 219 222 226 228 230 228 230 234 234 238 240 238 238 237 238 244 243 243 239 237 241 244 246 251 254 251 246 247 256 261 268 265 262 269 266 269 269 268 269 273 281 284
220 222 225 228 232 234 236 235 239 240 240 242 243 242 240 238 239 241 245 247 247 246 245 248 251 251 252 252 251 248 255 261 262 251 266 269 267 268 270 269 273 275 277
220 226 230 232 237 240 241 240 242 246 245 246 248 247 244 242 242 244 245 245 247 250 250 252 253 253 256 253 250 248 247 253 264 271 266 265 262 266 267 266 275 273 276
224 230 233 236 242 245 245 243 245 246 246 247 247 247 247 246 241 243 247 248 250 250 250 251 255 256 257 255 250 256 260 262 267 256 251 261 261 265 267 262 262 267 273
232 235 236 237 240 246 245 245 246 247 243 246 247 248 249 250 244 242 245 247 251 255 255 255 259 259 257 253 251 249 244 247 257 252 243 254 260 271 270 264 258 261 270
237 240 242 242 243 247 245 246 247 243 243 245 245 246 246 249 247 243 246 244 248 252 253 253 252 251 248 243 241 243 239 241 252 254 233 245 255 265 270 260 262 267 269